Regional Weather Roundup
Issued by NWS Wakefield, VA

Home | Current Version | Previous Version | Text Only | Print | Product List | Glossary On
Versions: 1 2 3 4 5 6 7 8 9 10 11 12 13 14 15 16 17 18 19 20 21 22 23 24 25 26 27 28 29 30 31 32 33 34 35 36 37 38 39 40 41 42 43 44 45 46 47 48 49 50
000
ASUS41 KAKQ 260115
RWRAKQ

REGIONAL WEATHER ROUNDUP
NATIONAL WEATHER SERVICE WAKEFIELD VA
900 PM EDT TUE JUL 25 2017

Note: "fair" indicates few or no clouds below 12,000 feet with no
significant weather and/or obstructions to visibility. * = Denotes
station may not report precipitation (e.g., rain,snow,etc.),
thunder or fog.

VAZ042-051-052>054-056-260200-
NORTHERN VIRGINIA

CITY           SKY/WX    TMP DP  RH WIND       PRES   REMARKS
WASH NATIONAL  MOCLDY    77  63  61 N9        30.16R
DULLES         PTCLDY    73  60  63 NE6       30.16S
FORT BELVOIR   CLEAR     73  61  65 CALM      30.15S
QUANTICO       CLEAR     75  62  64 N6        30.16R
FREDERICKSBRG* CLEAR     75  63  66 N5        30.15R
STAFFORD*      CLEAR     67  65  94 CALM      30.20R
WARRENTON      CLEAR     67  58  73 CALM      30.17R
CULPEPER*      CLEAR     68  63  83 CALM      30.17S
MANASSAS*      CLEAR     70  61  73 N6        30.16S
LEESBURG*      PTCLDY    73  63  68 N7        30.18S
WINCHESTER     CLEAR     64  59  82 CALM      30.19R
FRONT ROYAL*   CLEAR     70  59  68 CALM      30.18S
LURAY*         CLEAR     70  59  68 CALM      30.19R
$$

VAZ048-049-060>072-079>083-260200-
CENTRAL AND SOUTH CENTRAL VIRGINIA

CITY           SKY/WX    TMP DP  RH WIND       PRES   REMARKS
RICHMOND       PTCLDY    75  62  64 E5        30.14R
CHESTERFIELD*  NOT AVBL
PETERSBURG*    CLEAR     77  58  51 CALM      30.13R
HANOVER        CLEAR     73  61  65 CALM      30.16R
TAPPAHANNOCK*  CLEAR     72  49  44 CALM      30.15R
QUINTON*       FAIR      75  63  66 CALM      30.13S
CHARLOTTSVILLE CLEAR     75  60  59 NE12      30.17R
GORDONSVILLE*  CLEAR     73  60  65 NE8       30.16R
ORANGE*        CLEAR     70  59  68 CALM      30.17R
LOUISA*        CLEAR     73  59  60 NE6       30.16R
BUMPASS*       FAIR      73  62  68 CALM      30.16R
FARMVILLE*     CLEAR     77  55  46 NE7       30.12R
CREWE*         FAIR      77  55  46 CALM      30.13R
FORT PICKETT*  FAIR     N/A N/A N/A E5        30.13R
CHASE CITY*    FAIR      81  63  54 CALM      30.12R
CLARKSVILLE*   FAIR      81  64  57 NE7       30.10R
SOUTH HILL*    MOCLDY    80  66  63 CALM      30.17R
LAWRENCEVILLE* FAIR      78  63  60 NE3       30.12R
EMPORIA*       PTCLDY    77  64  65 NE7       30.14R
$$

VAZ088>098-260200-
SOUTHEAST VIRGINIA

CITY           SKY/WX    TMP DP  RH WIND       PRES   REMARKS
NORFOLK        CLEAR     75  67  76 E9        30.13R
VIRGINIA BEACH PTCLDY    72  63  73 E6        30.13R
NORFOLK NAVAL  PTCLDY    76  66  71 E8        30.14R
WEST POINT*    CLEAR     75  60  59 N3        30.15R
SALUDA*        FAIR      76  66  72 NE3       30.13S
NEWPORT NEWS   CLEAR     75  62  64 NE6       30.13R
LANGLEY AFB    PTCLDY    76  63  64 NE7       30.13R
FORT EUSTIS    CLEAR     78  64  61 NE5       30.11R
WILLIAMSBURG*  CLEAR     79  64  61 CALM      30.14R
HR EXEC AP*    FAIR      75  61  60 NE3       30.11R
FRANKLIN*      CLEAR     73  64  73 CALM      30.14R
US460-WAKEFLD  NOT AVBL
$$

VAZ020-022-025-037-045-260200-
WEST CENTRAL AND SOUTHWEST VIRGINIA

CITY           SKY/WX    TMP DP  RH WIND       PRES   REMARKS
STAUNTON*      CLEAR     72  58  62 NE10      30.20R
WAYNESBORO*    PTCLDY    73  62  68 E8        30.19R
HOT SPRINGS VA CLEAR     68  48  49 CALM      30.30R
LYNCHBURG      CLEAR     78  64  61 NE6       30.14R
DANVILLE       CLEAR     73  70  90 CALM      30.10R
SOUTH BOSTON*  MOCLDY    78  67  68 N6        30.10R
MARTINSVILLE   CLEAR     73  67  82 CALM      30.15R
ROANOKE        CLEAR     80  56  43 N3        30.15R
BLACKSBURG     CLEAR     73  57  56 CALM      30.22R
DUBLIN*        CLEAR     78  49  36 N5        30.21R
MARION*        CLEAR     72  60  66 CALM      30.25R
HILLSVILLE*    CLEAR     76  52  42 CALM      30.22R
RICHLANDS*     FAIR      73  59  62 NE5       30.23S
WISE*          CLEAR     72  61  68 N5        30.24S
ABINGDON*      CLEAR     79  64  60 CALM      30.19R
$$

MDZ021>025-VAZ099-100-260200-
SOUTHERN MARYLAND AND THE DELMARVA PENINSULA

CITY           SKY/WX    TMP DP  RH WIND       PRES   REMARKS
PATUXENT RIVER PTCLDY    75  65  70 N6        30.14R
BAY BRIDGE APT CLOUDY    77  63  61 N8        30.14S
LEONARDTOWN    CLEAR     70  63  78 CALM      30.16S
DOVER          CLOUDY    73  73 100 S7        30.13S
GEORGETOWN     CLOUDY    73  67  81 NE6       30.15R
EASTON         MOCLDY    75  63  64 N3        30.18R
CAMBRIDGE      CLEAR     75  64  69 N6        30.14S
SALISBURY      PTCLDY    72  68  87 E6        30.14R
OCEAN CITY     CLEAR     72  67  84 NE6       30.14R
WALLOPS ISLAND CLOUDY    75  68  78 NE13      30.14R
ACCOMACK*      CLEAR     73  66  80 E3        30.14R
$$

NCZ012>017-030>032-260200-
NORTH CENTRAL AND EASTERN NORTH CAROLINA

CITY           SKY/WX    TMP DP  RH WIND       PRES   REMARKS
ROANOKE RAPIDS FAIR      79  70  73 CALM      30.10R
RALEIGH        MOCLDY    79  69  71 CALM      30.09R
ELIZABETH CITY CLOUDY    76  67  73 NE10      30.13R
AHOSKIE*         N/A     76  71  82 E5        30.12R
EDENTON*       CLOUDY    77  68  72 CALM      30.13R
CURRITUCK*     PTCLDY    76  66  70 E5        30.13R
KILL DEVIL HLS MOCLDY    75  65  69 CALM      30.11R
MANTEO         MOCLDY    75  66  71 E12       30.12R
CAPE HATTERAS  MOCLDY    77  67  71 NE8       30.10R
TARBORO*       NOT AVBL
GOLDSBORO      PTCLDY    81  78  90 E9        30.07R
WASHINGTON     PTCLDY    78  70  77 E6        30.10R
GREENVILLE     PTCLDY    81  72  74 E5        30.11R
NEW BERN       CLOUDY    79  74  84 E8        30.10R
WILMINGTON     CLOUDY    81  77  88 SW3       30.05R
$$

VAZ048-260200-
ELSEWHERE

CITY           SKY/WX    TMP DP  RH WIND       PRES   REMARKS
HARRISBURG PA  CLOUDY    72  60  66 NW3       30.17R
BALTIMORE      MOCLDY    74  62  66 N6        30.15R
ANNAPOLIS      CLOUDY    77  67  71 N5        30.15R
ANDREWS AFB    PTCLDY    71  61  69 N7        30.15R
PHILADELPHIA   CLOUDY    73  63  70 NE8       30.16R
HENDERSON NC   PTCLDY    75  65  69 E3        30.11R
GREENSBORO     PTCLDY    81  66  60 SE6       30.11R
ROCKY MOUNT    PTCLDY    80  75  84 NE5       30.09R
$$

VAZ100-260200-
MARINE

STATION/POSITION TIME  TEMP    WIND        PRES    WAVE   SWELL
                       AIR SEA DIR/SP/G            HT/PER HT/PER
                 (UTC) (F)     (DEG/KT/KT) (MB)    (FT/S) (FT/S)
BRANDYWINE LGT   0048          100/ 14/ 16   N/A
CAPE MAY NJ      0048   72 75   80/  5/  8 1020.4S
LEWES DE         0048   73 78   90/ 10/ 12 1020.6R
15NM E FENWICK I 2350   75 76   40/ 12/ 14 1020.6    4/ 6   3/ 6
OCEAN-CITY-INLET 0048   73 72   70/  4/  7 1021.1R
WACHAPREAGUE VA  0048   74 82   50/  9/ 10 1020.4R
THOMAS POINT MD  0100   77 82  320/  8/ 11   N/A
GOOSES REEF MD   0100   79 82   10/  8/ 12 1021.2    1/ 2
COVE POINT MD    0048   78      20/  8/ 13 1021.1R
SOLOMONS ISLAND  0048   77 84  360/  4/  5   N/A
BISHOPS HEAD MD  0048   76 83  350/  5/  9 1020.6R
PINEY POINT MD   0036           30/  5/  6   N/A
CAMBRIDGE MD     0048   77 85              1021.3R
LEWISETTA VA     0048   78 84   30/  6/ 11 1020.5R
RAPPAHANNOCK LGT 0048           90/ 12/ 14 1020.9R
STINGRAY PT      0050   80      40/ 12/ 14 1020.0R
YORK RVR RNG VA  0048   79      40/ 14/ 16 1020.4R
YORKTOWN VA      0048   78 82   40/  9/ 10 1019.9R
JAMESTOWN VA     0100      86   80/  4/  8   N/A     0
DOMINION TERM VA 0048   79      40/  3/  8 1020.1R
KIPTOPEKE VA     0048      79   90/  4/  5   N/A
CHES BAY BRIDGE  0048   74 77   80/ 11/ 13 1020.1R
CAPE HENRY VA    0048   74      60/  8/ 11   N/A
WILLOUBY STN VA  0048   75      90/ 13/ 14 1020.0R
S CRANEY ISL VA  0048   77      80/ 11/ 13 1019.8R
CAPE HENRY BUOY  0100      71                N/A     3/11
1ST LANDING BUOY 0100   74 76              1020.2    2/ 3
64NM E OF VA BCH 0050   77 78   20/ 14/ 16 1019.7R   3/ 5   2/ 7
DUCK PIER NC     0048   76 75   40/ 10/ 11 1019.6R
44100 DUCK FRF   0005      77                N/A     3/ 6
44056 DUCK FRF   0100      75                N/A     3/ 4
OREGON INLET NC  0036   75 79   30/  6/ 10 1019.5R
HATTERAS NC      0048   78 80   60/  7/ 12 1019.2R
DIAMOND SHLS NC  0050   80 84   30/ 16/ 17 1018.5R   4/ 6   2/10
CAPE LOOKOUT NC  0000   82      CALM  /  2 1017.8R
$$



USA.gov is the U.S. government's official web portal to all federal, state and local government web resources and services.